Showing default

TURKSAT 3A, 33056

Orbit data source: Space-Track

TURKSAT 3A, 33056 is a payload satellite owned by Turksat (TR) in GEO that was launched on Thu, 12 Jun 2008 UTC via an ARIANE 5ECA launch vehicle from the French Guiana (FRGUI). Payload-class satellites include a variety of spacecraft equipped with specific instruments for various scientific and technological missions. These include communications satellites like Starlink; space stations such as the ISS; scientific satellites like the Hubble; Earth observation satellites from companies like Planet Labs, Umbra, and HawkEye 360; GPS; miniature CubeSats for education and research; and military/defense satellites.

Not visible in the next 10 days
Identifier
33056, 2008-030B
Orbit
GEO
Country
Flag of UnknownUnknown / TURK
Related business
Manufacturer
Thales Alenia
Mission
Operational Civil Communications
Bus & Motor
SPACEBUS 4000B2, S400
Mass
3,010 kg wet, ~1,500 kg dry
Launch date (UTC)
2008-06-12 (18 years ago)
Launch vehicle
ARIANE 5ECA
Launch site
French Guiana (FRGUI)
Object type
Payload
Rocket body
Debris
Shape & HBR
Box + 2 Pan, 15.0 m
Radar Cross Section
28.939 m², Large (>1 m²)

Expand to show TLE details & history
Last TLE update: 17 hours ago

TLE from 17 hours ago
0 TURKSAT 3A
1 33056U 08030B   25348.92408407  .00000166  00000-0  00000-0 0  9997
2 33056   0.0498  80.0036 0002780 176.6978 201.7994  1.00269747 50517
Epoch: 2025-12-14T22:10Z
TLE epoch observation values (Epoch: 2025-12-14T22:10:40.863Z)
Latitude
0.03241°
Longitude
41.97837°
Altitude
35,797.587 km
Speed
3.074 km/s
True Right ascension
06h 33m 54s
True Declination
0° 01' 57"
Sunlit
Object was in daylight at epoch
Visualization orbit readout
Latitude
Unknown
Longitude
Unknown
Altitude
Unknown
Speed
Unknown
Apparent Right ascension
Unknown
Apparent Declination
Unknown
Sunlit
N/A
Visualization observer readout
Local Sidereal Time
13:25:40
Azimuth
Unknown
Elevation
Unknown
Doppler factor
Unknown
Orbital elements
Apogee altitude
35,799.959 km
Perigee altitude
35,776.514 km
Semi-major axis
42,166.374 km
Eccentricity
0.00028
Inclination
0.0498°
RAAN
80.0036°
Arg. of periapsis
176.6978°
True anomaly
201.78757°
Mean anomaly
201.7994°
Eccentric anomaly
201.79349°
Mean motion
0.25067 °/min
Orbital period
1,436.18 mins
BSTAR
0
Loading maneuver chart data...
Computing Atmospheric mass density...
Loading historical data...
Loading historical data...
Loading historical data...
Loading historical data...
Loading historical data...
Loading historical data...
Loading historical data...

Documentation

Showing up to 5 results
|